Flag for Norway Weather past 2 weeks in Brønnøysund, Norway

Now
32 °F

Passing clouds.


Feels Like: 21 °F
Forecast: 30 / 36 °F
Wind: 17 mph from Northwest

Location: Bronnoysund / Bronnoy

Current Time: Dec 26, 2014 at 12:39:12 AM

Latest Report: Dec 25, 2014 at 11:50 PM


Visibility: N/A

Pressure: 29.86 "Hg

Humidity: 55%

Dew point: 18 °F

Location of BrønnøysundLocation

Historic Weather in Brønnøysund — Graph

°F

Brønnøysund temperature yesterday

Maximum temperature yesterday: 34 °F (at 9:50 AM)
Minimum temperature yesterday: 27 °F (at 12:20 AM)
Average temperature yesterday: 30 °F

Past Weeks' High & Low Weather Summary

 TemperatureHumidityPressure
High43 °F (Dec 15, 4:20 AM)100% (Dec 14, 4:50 AM)29.89 "Hg (Dec 14, 4:50 AM)
Low19 °F (Dec 24, 9:50 AM)47% (Dec 21, 9:50 PM)28.80 "Hg (Dec 11, 5:20 AM)
Average32 °F74%29.22 "Hg
* Reported Dec 10 11:20 PM — Dec 25 11:20 PM, Brønnøysund, Weather by CustomWeather, © 2014

Note: Actual official high and low records may vary slightly from our data, if they occured in-between our weather recording intervals... More about our weather records

Advertising

Brønnøysund weather history for previous 24 hours

 ConditionsComfort  
Time TempWeatherWind HumidityBarometerVisibility
11:20 PM
Dec 25
32 °FPassing clouds.15 mph55%29.86 "HgN/A
10:50 PM30 °FPartly cloudy.13 mph69%29.86 "HgN/A
10:20 PM32 °FPassing clouds.16 mph64%29.86 "HgN/A
9:50 PM30 °FPartly cloudy.9 mph75%29.86 "HgN/A
9:20 PM28 °FPartly cloudy.17 mph80%29.86 "HgN/A
8:50 PM28 °FChilly.15 mph86%29.86 "HgN/A
8:20 PM28 °FPassing clouds.21 mph86%29.86 "HgN/A
7:50 PM30 °FPartly cloudy.17 mph80%29.86 "HgN/A
7:20 PM30 °FOvercast.15 mph80%29.86 "HgN/A
6:50 PM30 °FPartly cloudy.17 mph80%29.86 "HgN/A
6:20 PM28 °FPartly cloudy.17 mph86%29.86 "HgN/A
5:50 PM30 °FPartly cloudy.17 mph80%29.86 "HgN/A
5:20 PM32 °FMostly cloudy.14 mph80%29.86 "HgN/A
4:50 PM32 °FPartly cloudy.14 mph80%29.86 "HgN/A
4:20 PM30 °FChilly.23 mph86%29.89 "HgN/A
3:50 PM32 °FPassing clouds.21 mph75%29.86 "HgN/A
3:20 PM34 °FPartly cloudy.20 mph65%29.89 "HgN/A
2:50 PM34 °FPassing clouds.20 mph70%29.89 "HgN/A
2:20 PM34 °FPassing clouds.17 mph70%29.89 "HgN/A
1:50 PM34 °FPassing clouds.15 mph70%29.89 "HgN/A
1:20 PM32 °FScattered clouds.13 mph75%29.89 "HgN/A
12:50 PM32 °FCloudy.14 mph87%29.89 "HgN/A
12:20 PM32 °FBroken clouds.18 mph87%29.89 "HgN/A
11:50 AM32 °FPartly sunny.12 mph80%29.89 "HgN/A
11:20 AM30 °FBroken clouds.8 mph93%29.89 "HgN/A
10:50 AM32 °FChilly.14 mph80%29.89 "HgN/A
10:20 AM34 °FPassing clouds.17 mph60%29.89 "HgN/A
9:50 AM34 °FPassing clouds.9 mph65%29.89 "HgN/A
9:20 AM30 °FClear.13 mph80%29.89 "HgN/A
8:50 AM30 °FMostly cloudy.9 mph80%29.89 "HgN/A
8:20 AM30 °FMostly cloudy.9 mph86%29.89 "HgN/A
7:50 AM28 °FMostly cloudy.10 mph93%29.89 "HgN/A
7:20 AM27 °FMostly cloudy.3 mph100%29.89 "HgN/A
6:50 AM27 °FChilly.5 mph100%29.89 "HgN/A
6:20 AM27 °FPassing clouds.5 mph93%29.89 "HgN/A
5:50 AM27 °FPartly cloudy.6 mph93%29.89 "HgN/A
5:20 AM27 °FChilly.7 mph93%29.89 "HgN/A
4:50 AM27 °FPartly cloudy.9 mph93%29.86 "HgN/A
4:20 AM28 °FPassing clouds.10 mph93%29.86 "HgN/A
3:50 AM27 °FChilly.6 mph93%29.89 "HgN/A
3:20 AM28 °FChilly.21 mph86%29.86 "HgN/A
2:50 AM27 °FChilly.20 mph93%29.86 "HgN/A
2:20 AM28 °FChilly.10 mph80%29.86 "HgN/A
1:50 AM27 °FPartly cloudy.16 mph86%29.86 "HgN/A
1:20 AM28 °FPassing clouds.14 mph74%29.86 "HgN/A
12:50 AM27 °FMostly cloudy.8 mph86%29.86 "HgN/A
12:20 AM27 °FChilly.2 mph86%29.86 "HgN/A
Weather by CustomWeather, © 2014

See weather overviewHow to use our weather pages